Location: Unspecified
(0.0000°N, 0.0000°E)
Time: 17:56:49
(UTC+00:00)

Vanguard 2 - Pass Details

Date: 17 April 2026
Orbit: 553 x 2895 km, 32.9° (Epoch: 17 May)

Event Time Altitude Azimuth Distance (km) Brightness Sun altitude
Exits shadow 03:15:33 15° 188° (S) 4,766 11.3 -40.2°
Maximum altitude 03:19:47 17° 169° (S) 4,361 11.3 -39.2°
Drops below altitude 10° 03:27:13 10° 133° (SE) 4,366 11.7 -37.4°
Sets 03:31:56 0° 113° (ESE) 4,914 12.3 -36.2°
